Back to catalog

ONEWEB-0315

AliveCommunicationsPO
NORAD 49101·PAYLOAD·🇬🇧 United Kingdom

Launched Aug 21, 2021 from Baikonur Cosmodrome

Loading…

Next Passes (next 24 hours)

TLE

FreshSource: CelesTrak SupGP

Epoch: Sep 14, 2026, 19:24 UTC

1 49101C 21075AC  26257.80884676 -.00002751  00000+0 -76568-2 0  2576
2 49101  87.8992 332.8559 0002138 109.3853 353.0560 13.12448255    16

Track ONEWEB-0315 in real time with AllMySat

Download on the App Store